North Myrtle Beach, SC

4:22 PM EST on November 22, 2019 (GMT -0500)
Grand Strand

Weather History for KCRE - August, 2019

Change the Weather History Date:

Monday, August 5, 2019

  Actual Average Record
Temperature  
Mean Temperature 78 °F 80 °F  
Max Temperature 86 °F 87 °F 104 °F (1954)
Min Temperature 70 °F 73 °F 63 °F (1950)
Degree Days  
Heating Degree Days 0 0  
Month to date heating degree days 0 0  
Since 1 June heating degree days 0 0  
Since 1 July heating degree days 0 0  
Cooling Degree Days 13 15  
Month to date cooling degree days 72 75  
Year to date cooling degree days 1364 1120  
Since 1 June cooling degree days 971 908  
Growing Degree Days 27 (Base 50)    
Moisture  
Dew Point 72 °F    
Average Humidity 85    
Maximum Humidity 100    
Minimum Humidity 70    
Precipitation  
Precipitation 0.19 in 0.21 in 2.14 in (1932)
Month to date precipitation 0.48 1.06  
Year to date precipitation 23.49 29.00  
Sea Level Pressure  
Sea Level Pressure 29.94 in    
Wind  
Wind Speed 4 mph (WNW)    
Max Wind Speed 15 mph    
Max Gust Speed 19 mph    
Visibility 7 miles    
Events Fog , Rain , Thunderstorm    
T = Trace of Precipitation, MM = Missing Value Source: NWS Daily Summary

Daily Weather History Graph

Daily Weather History Graph

Search for Another Location

Airport or City:

Astronomy

Aug. 05, 2019 Rise Set
Actual Time 6:29 AM EDT 8:11 PM EDT
Civil Twilight 6:02 AM EDT 8:38 PM EDT
Nautical Twilight 5:29 AM EDT 9:11 PM EDT
Astronomical Twilight 4:55 AM EDT 9:45 PM EDT
Moon 11:29 AM EDT (8/5) 11:38 PM EDT (8/5)
Length of Visible Light 14h 36m
Length of Day
13h 42m
Waxing Crescent, 28% of the Moon is Illuminated
Aug 5
Waxing Crescent
Aug 7
First Quarter
Aug 15
Full
Aug 23
Last Quarter
Aug 30
New

Hourly Weather History & Observations

Time (EDT) Temp. Heat Index Dew Point Humidity Pressure Visibility Wind Dir Wind Speed Gust Speed Precip Events Conditions
12:53 AM 73.9 °F - 72.0 °F 93% 29.96 in 10.0 mi NNE 3.5 mph - N/A   Clear
1:53 AM 73.0 °F - 72.0 °F 96% 29.95 in 10.0 mi Calm Calm - N/A   Clear
2:53 AM 73.0 °F - 72.0 °F 96% 29.94 in 10.0 mi Calm Calm - N/A   Clear
3:37 AM 72.0 °F - 71.1 °F 97% 29.93 in 4.0 mi Calm Calm - N/A   Scattered Clouds
3:40 AM 72.0 °F - 71.1 °F 97% 29.93 in 2.0 mi Calm Calm - N/A   Mostly Cloudy
3:48 AM 71.6 °F - 71.6 °F 100% 29.93 in 1.5 mi Calm Calm - N/A   Mostly Cloudy
3:53 AM 72.0 °F - 71.1 °F 97% 29.93 in 1.0 mi Calm Calm - N/A   Mist
4:26 AM 71.1 °F - 71.1 °F 100% 29.92 in 0.5 mi North 3.5 mph - N/A Fog Fog
4:36 AM 71.1 °F - 71.1 °F 100% 29.93 in 0.2 mi North 3.5 mph - N/A Fog Fog
4:53 AM 71.1 °F - 71.1 °F 100% 29.94 in 0.5 mi Calm Calm - N/A Fog Fog
5:12 AM 71.1 °F - 71.1 °F 100% 29.93 in 0.2 mi Calm Calm - N/A Fog Fog
5:31 AM 71.1 °F - 71.1 °F 100% 29.94 in 0.5 mi Calm Calm - N/A Fog Fog
5:53 AM 71.1 °F - 71.1 °F 100% 29.94 in 1.0 mi Calm Calm - N/A   Mist
6:04 AM 70.0 °F - 70.0 °F 100% 29.94 in 0.8 mi Calm Calm - N/A   Mist
6:12 AM 70.0 °F - 70.0 °F 100% 29.94 in 1.0 mi NNW 3.5 mph - N/A   Overcast
6:19 AM 70.0 °F - 70.0 °F 100% 29.94 in 0.8 mi Calm Calm - N/A   Mist
6:40 AM 71.1 °F - 70.0 °F 96% 29.95 in 0.2 mi WNW 3.5 mph - N/A Fog Fog
6:53 AM 71.1 °F - 71.1 °F 100% 29.96 in 0.2 mi Calm Calm - N/A Fog Fog
7:04 AM 70.0 °F - 70.0 °F 100% 29.96 in 0.5 mi Calm Calm - N/A Fog Fog
7:38 AM 72.0 °F - 72.0 °F 100% 29.96 in 1.0 mi Calm Calm - N/A   Clear
7:53 AM 72.0 °F - 71.1 °F 97% 29.97 in 10.0 mi NNW 4.6 mph - N/A   Scattered Clouds
8:00 AM 72.0 °F - 72.0 °F 100% 29.96 in 2.0 mi Calm Calm - N/A   Partly Cloudy
8:28 AM 73.9 °F - 73.0 °F 97% 29.96 in 10.0 mi Calm Calm - N/A   Clear
8:53 AM 75.9 °F - 73.9 °F 94% 29.97 in 10.0 mi Calm Calm - N/A   Clear
9:53 AM 79.0 °F - 73.9 °F 84% 29.98 in 10.0 mi Calm Calm - N/A   Clear
10:23 AM 81.0 °F 86.2 °F 73.9 °F 79% 29.98 in 10.0 mi West 4.6 mph - N/A   Mostly Cloudy
10:53 AM 81.0 °F 85.8 °F 73.0 °F 77% 29.98 in 10.0 mi West 4.6 mph - N/A   Mostly Cloudy
11:13 AM 81.0 °F 85.8 °F 73.0 °F 77% 29.97 in 10.0 mi SSW 3.5 mph - N/A   Scattered Clouds
11:53 AM 82.9 °F 88.8 °F 73.0 °F 72% 29.96 in 10.0 mi Variable 3.5 mph - N/A   Scattered Clouds
12:53 PM 84.0 °F 91.2 °F 73.9 °F 72% 29.95 in 10.0 mi South 9.2 mph - N/A   Scattered Clouds
1:53 PM 84.0 °F 91.2 °F 73.9 °F 72% 29.94 in 10.0 mi South 11.5 mph - N/A   Scattered Clouds
2:53 PM 84.9 °F 92.1 °F 73.9 °F 69% 29.92 in 10.0 mi South 11.5 mph - N/A   Scattered Clouds
3:53 PM 84.0 °F 90.2 °F 73.0 °F 69% 29.91 in 10.0 mi South 13.8 mph - N/A   Scattered Clouds
4:53 PM 82.9 °F 89.4 °F 73.9 °F 74% 29.91 in 10.0 mi SSW 10.4 mph - N/A Thunderstorm Thunderstorm
5:11 PM 82.9 °F 89.4 °F 73.9 °F 74% 29.90 in 10.0 mi SSW 8.1 mph - N/A   Scattered Clouds
5:44 PM 82.0 °F 87.9 °F 73.9 °F 76% 29.90 in 10.0 mi SSW 12.7 mph - 0.00 in Thunderstorm Thunderstorm
5:53 PM 82.0 °F 87.9 °F 73.9 °F 76% 29.91 in 10.0 mi SW 11.5 mph - 0.00 in Thunderstorm Thunderstorm
6:53 PM 79.0 °F - 75.0 °F 88% 29.91 in 10.0 mi West 6.9 mph - 0.02 in Thunderstorm Thunderstorm
7:05 PM 78.1 °F - 75.0 °F 90% 29.90 in 10.0 mi WNW 5.8 mph - N/A Thunderstorm Partly Cloudy
7:19 PM 78.1 °F - 73.9 °F 87% 29.90 in 10.0 mi NW 3.5 mph - N/A Thunderstorm Thunderstorm
7:41 PM 75.9 °F - 71.1 °F 85% 29.91 in 10.0 mi West 3.5 mph - N/A   Mostly Cloudy
7:47 PM 75.2 °F - 71.6 °F 89% 29.91 in 10.0 mi NW 5.8 mph - N/A Thunderstorm Mostly Cloudy
7:48 PM 75.0 °F - 72.0 °F 90% 29.92 in 10.0 mi NW 4.6 mph - N/A Thunderstorm Mostly Cloudy
8:03 PM 75.9 °F - 72.0 °F 87% 29.92 in 10.0 mi NW 5.8 mph - N/A   Overcast
8:10 PM 77.0 °F - 73.0 °F 88% 29.92 in 10.0 mi Calm Calm - N/A Thunderstorm Overcast
8:49 PM 75.2 °F - 73.4 °F 94% 29.93 in 10.0 mi NNW 8.1 mph - 0.00 in Rain , Thunderstorm Light Thunderstorms and Rain
8:53 PM 73.9 °F - 72.0 °F 93% 29.94 in 10.0 mi Variable 5.8 mph - 0.00 in Rain , Thunderstorm Light Thunderstorms and Rain
9:08 PM 73.0 °F - 73.0 °F 100% 29.93 in 2.5 mi NW 8.1 mph - 0.08 in Rain , Thunderstorm Heavy Thunderstorms and Rain
9:19 PM 73.0 °F - 72.0 °F 96% 29.94 in 4.0 mi NW 4.6 mph - 0.12 in Rain , Thunderstorm Thunderstorms and Rain
9:29 PM 73.0 °F - 72.0 °F 96% 29.95 in 5.0 mi Calm Calm - 0.13 in Rain , Thunderstorm Light Rain
9:53 PM 73.0 °F - 71.1 °F 93% 29.94 in 9.0 mi NW 4.6 mph - 0.16 in Rain Light Rain
10:53 PM 73.0 °F - 72.0 °F 96% 29.95 in 10.0 mi NNE 3.5 mph - 0.01 in   Scattered Clouds
11:53 PM 73.0 °F - 73.0 °F 100% 29.94 in 10.0 mi Calm Calm - N/A   Clear